Regional Weather Roundup
Issued by NWS Wakefield, VA

Home | Current Version | Previous Version | Graphics & Text | Print | Product List | Glossary On
Versions: 1 2 3 4 5 6 7 8 9 10 11 12 13 14 15 16 17 18 19 20 21 22 23 24 25 26 27
000
ASUS41 KAKQ 241914
RWRAKQ

REGIONAL WEATHER ROUNDUP
NATIONAL WEATHER SERVICE WAKEFIELD VA
200 PM EST FRI FEB 24 2017

Note: "fair" indicates few or no clouds below 12,000 feet with no
significant weather and/or obstructions to visibility. * = Denotes
station may not report precipitation (e.g., rain,snow,etc.),
thunder or fog.

VAZ042-051-052>054-056-242000-
NORTHERN VIRGINIA

CITY           SKY/WX    TMP DP  RH WIND       PRES   REMARKS
WASH NATIONAL  PTSUNNY   74  55  51 S14       29.85F
DULLES         PTSUNNY   76  51  41 S12G20    29.83F
FORT BELVOIR   MOSUNNY   76  54  46 S9G20     29.84F
QUANTICO       MOSUNNY   62  52  69 S13       29.85F
FREDERICKSBRG* MOSUNNY   76  54  47 S15       29.84F
STAFFORD*      PTSUNNY   76  51  42 S10       29.88F
WARRENTON      PTSUNNY   78  47  33 S8G20     29.83F
CULPEPER*      MOSUNNY   77  54  44 S14G21    29.84F
MANASSAS*        N/A     75  53  46 S12       29.83F
LEESBURG*      MOSUNNY   77  55  47 MISG      29.83F
WINCHESTER     SUNNY     73  50  43 SE13G18   29.79F
FRONT ROYAL*   NOT AVBL
LURAY*         NOT AVBL
$$

VAZ048-049-060>072-079>083-242000-
CENTRAL AND SOUTH CENTRAL VIRGINIA

CITY           SKY/WX    TMP DP  RH WIND       PRES   REMARKS
RICHMOND       PTSUNNY   74  56  53 SW9       29.87F
CHESTERFIELD*  MOCLDY    73  46  38 SW9       29.89F
PETERSBURG*    PTSUNNY   74  54  50 S7        29.88F
HANOVER        MOSUNNY   75  53  46 VRB7      29.88F
TAPPAHANNOCK*  PTSUNNY   74  47  38 SE7       29.88F
QUINTON*       NOT AVBL
CHARLOTTSVILLE MOSUNNY   76  53  44 SW13G24   29.82F
GORDONSVILLE*  NOT AVBL
ORANGE*        PTSUNNY   73  52  46 SE8       29.85F
LOUISA*        PTSUNNY   77  55  47 S9        29.84F
BUMPASS*       NOT AVBL
FARMVILLE*     PTSUNNY   75  54  47 S12G18    29.84F
CREWE*         NOT AVBL
FORT PICKETT*  NOT AVBL
CHASE CITY*    NOT AVBL
CLARKSVILLE*   NOT AVBL
SOUTH HILL*    PTSUNNY   72  57  60 S6        29.93F
LAWRENCEVILLE* NOT AVBL
EMPORIA*       CLOUDY    72  55  56 SE5       29.89F
$$

VAZ088>098-242000-
SOUTHEAST VIRGINIA

CITY           SKY/WX    TMP DP  RH WIND       PRES   REMARKS
NORFOLK        PTSUNNY   77  58  51 SE12G20   29.87F
VIRGINIA BEACH PTSUNNY   70  58  65 SE12      29.88F
NORFOLK NAVAL  PTSUNNY   67  55  65 NE7       29.89F
WEST POINT*    PTSUNNY   74  54  48 S9        29.88F
SALUDA*        NOT AVBL
NEWPORT NEWS   NOT AVBL
LANGLEY AFB    MOSUNNY   72  59  64 E12       29.88F
FORT EUSTIS    MOSUNNY   78  57  48 VRB6      29.85F
WILLIAMSBURG*  SUNNY     79  59  50 CALM      29.89F
HR EXEC AP*    NOT AVBL
FRANKLIN*      PTSUNNY   74  55  51 S6        29.88F
US460-WAKEFLD  PTSUNNY   73  57  57 VRB5      29.88F
$$

VAZ020-022-025-037-045-242000-
WEST CENTRAL AND SOUTHWEST VIRGINIA

CITY           SKY/WX    TMP DP  RH WIND       PRES   REMARKS
STAUNTON*      PTSUNNY   73  52  47 S14       29.84F
WAYNESBORO*    NOT AVBL
HOT SPRINGS VA MOSUNNY   63  43  48 S10G16    29.90F
LYNCHBURG      MOSUNNY   73  51  46 S10       29.86F
DANVILLE       PTSUNNY   74  53  48 S9        29.86F
SOUTH BOSTON*  NOT AVBL
MARTINSVILLE   CLOUDY    71  50  48 SW5       29.88F
ROANOKE        MOSUNNY   74  52  46 S14       29.84F
BLACKSBURG     SUNNY     71  51  49 SW6       29.89F
DUBLIN*        SUNNY     72  51  48 S12G20    29.86F
MARION*        PTSUNNY   74  48  40 S3        29.86F
HILLSVILLE*    SUNNY     65  52  61 S6G20     29.87F
RICHLANDS*     FAIR      71  45  38 SW8       29.83F
WISE*          SUNNY     70  43  37 S12G18    29.83F
ABINGDON*      SUNNY     76  45  32 SW6       29.82F
$$

MDZ021>025-VAZ099-100-242000-
SOUTHERN MARYLAND AND THE DELMARVA PENINSULA

CITY           SKY/WX    TMP DP  RH WIND       PRES   REMARKS
PATUXENT RIVER PTSUNNY   64  57  78 SE10      29.88F
BAY BRIDGE APT SUNNY     72  55  56 S15G21    29.87F
LEONARDTOWN    PTSUNNY   73  54  49 SW8       29.89F
DOVER          CLOUDY    73  60  63 S12       29.87F
GEORGETOWN     CLOUDY    73  56  54 S14G20    29.90F
EASTON         PTSUNNY   73  55  53 SW13      29.92F
CAMBRIDGE      MOSUNNY   72  57  60 S13       29.89S
SALISBURY      CLOUDY    73  58  59 S9        29.89F
OCEAN CITY     SUNNY     59  53  80 SW6       29.92F
WALLOPS ISLAND MOSUNNY   68  60  75 S10       29.92F
ACCOMACK*      PTSUNNY   72  59  64 SE13      29.90F
$$

NCZ012>017-030>032-242000-
NORTH CENTRAL AND EASTERN NORTH CAROLINA

CITY           SKY/WX    TMP DP  RH WIND       PRES   REMARKS
ROANOKE RAPIDS MOCLDY    75  57  53 S6        29.87F
RALEIGH        MOSUNNY   76  53  44 SE7       29.87F
ELIZABETH CITY PTSUNNY   74  60  61 E14       29.89F
AHOSKIE*         N/A     75  57  53 S3        29.87F
EDENTON*       PTSUNNY   77  60  54 SE6       29.88F
CURRITUCK*     PTSUNNY   70  59  67 E6        29.90F
KILL DEVIL HLS NOT AVBL
MANTEO         MOSUNNY   71  59  66 E6        29.90F
CAPE HATTERAS  MOSUNNY   74  60  61 SE10      29.88F HAZE
TARBORO*       NOT AVBL
GOLDSBORO      MOSUNNY   79  56  45 SE6       29.84F
WASHINGTON     SUNNY     77  56  49 S10       29.87F
GREENVILLE     MOSUNNY   79  59  50 SE5       29.89F
NEW BERN       SUNNY     77  59  53 SE9       29.87F
WILMINGTON     SUNNY     73  61  65 E10       29.86F
$$

VAZ048-242000-
ELSEWHERE

CITY           SKY/WX    TMP DP  RH WIND       PRES   REMARKS
HARRISBURG PA  MOSUNNY   75  52  44 S8G20     29.79F
BALTIMORE      PTSUNNY   72  55  55 SE17G23   29.84F
ANNAPOLIS      SUNNY     69  56  62 SE14      29.86F
ANDREWS AFB    MOSUNNY   73  55  52 S16       29.84F
PHILADELPHIA   PTSUNNY   72  54  53 S12       29.87F
HENDERSON NC   MOSUNNY   71  53  52 S9        29.87F
GREENSBORO     MOSUNNY   72  52  49 VRB5      29.86F
ROCKY MOUNT    MOSUNNY   76  57  51 VRB5      29.86F
$$

VAZ100-242000-
MARINE

STATION/POSITION TIME  TEMP    WIND        PRES    WAVE   SWELL
                       AIR SEA DIR/SP/G            HT/PER HT/PER
                 (UTC) (F)     (DEG/KT/KT) (MB)    (FT/S) (FT/S)
CAPE MAY NJ      1848   62 45  160/ 11/ 14 1012.3F
LEWES DE         1848   68 44  140/  9/ 11 1012.1F
OCEAN-CITY-INLET 1848   54 46  170/  9/ 12 1013.6F
WACHAPREAGUE VA  1848   65 58  190/  7/  8 1012.9F
THOMAS POINT MD  1900   65 44  150/ 19/ 20   N/A
GOOSES REEF MD   1900   50 45  160/ 12/ 14 1012.3    1/ 2
COVE POINT MD    1848   52     180/ 11/ 12 1012.4F
SOLOMONS ISLAND  1848   60 46  130/ 14/ 15   N/A
BISHOPS HEAD MD  1848   55 51  160/ 10/ 10 1012.5F
PINEY POINT MD   1848          140/  9/ 10   N/A
POTOMAC MD       1900   53 48  140/ 10/ 10 1011.0    1/ 2
CAMBRIDGE MD     1848   71 45  170/  9/ 14 1011.2F
LEWISETTA VA     1848   57 45  110/  7/  8 1011.3F
RAPPAHANNOCK LGT 1848          150/  7/  7 1012.9F
YORK RVR RNG VA  1848   56     120/ 12/ 13 1011.4F
YORKTOWN VA      1848   57 49   70/  9/ 10 1011.7F
JAMESTOWN VA     1900   70 53   90/  6/ 10   N/A     0
DOMINION TERM VA 1848   60      70/ 10/ 11 1011.9F
KIPTOPEKE VA     1848      49  140/ 11/ 15   N/A
CHES BAY BRIDGE  1848   55 48  100/ 13/ 15 1011.9F
CAPE HENRY VA    1848   62     130/ 11/ 14   N/A
WILLOUBY STN VA  1842   56      70/  9/ 10 1012.8F
S CRANEY ISL VA  1848   65      20/  7/  8 1011.5F
CAPE HENRY BUOY  1842      53                N/A     4/12   2/12
OFFSHORE WE BUOY 1851      51                N/A     4/11   2/11
64NM E OF VA BCH 1850   60 56   80/  6/  6 1012.8F   5/10   5/10
DUCK PIER NC     1848   63 50   80/  4/  4 1012.0F
44100 DUCK FRF   1835      51                N/A     5/11   3/11
44056 DUCK FRF   1830      54                N/A     4/12   2/12
OREGON INLET NC  1842   64 55   50/  4/  6 1012.3F
HATTERAS NC      1848   71 62  110/  8/ 12 1011.5F
DIAMOND SHLS NC  1750   72 74  120/ 16/ 19 1011.9    7/10   5/10
CAPE LOOKOUT NC  1800   67      40/ 10/ 10 1011.5F
$$




USA.gov is the U.S. government's official web portal to all federal, state and local government web resources and services.